Regional Weather Roundup
Issued by NWS

Home | Current Version | Previous Version | Graphics & Text | Print | Product List | Glossary Off
Versions: 1 2 3 4 5 6 7 8 9 10 11 12 13 14 15 16 17 18 19 20 21 22 23 24 25 26 27 28 29 30 31 32 33 34 35 36 37 38 39 40 41 42 43 44 45 46 47 48 49 50

000
ASUS43 KDTX 230510
RWRMI
MICHIGAN HOURLY REGIONAL WEATHER ROUNDUP
NATIONAL WEATHER SERVICE DETROIT/PONTIAC MI
100 AM EDT SAT AUG 23 2014

NOTE: "FAIR" INDICATES FEW OR NO CLOUDS BELOW 12,000 FEET WITH NO
SIGNIFICANT WEATHER AND/OR OBSTRUCTION TO VISIBILITY.

MIZ047>049-052>055-059>063-066>070-074>076-081>083-230600-
SOUTHEAST LOWER MICHIGAN

CITY           SKY/WX    TMP DP  RH WIND       PRES   REMARKS
ADRIAN         CLOUDY    73  68  84 E7        30.04R
ALMA           CLEAR     63  62  94 NE3       30.05F
ANN ARBOR      CLOUDY    72  62  71 NE6       30.04R
BAD AXE        FOG       61  61 100 CALM      30.07R VSB 1/2
CARO           CLEAR     63  61  95 CALM      30.05S
DETROIT CITY   CLOUDY    72  62  71 NE3       30.04R
DETROIT        CLOUDY    73  60  63 CALM      30.04R
FLINT          CLOUDY    71  62  73 E6        30.05R
GROSSE ILE     CLOUDY    72  64  78 NE5       30.02S
HILLSDALE      MOCLDY    73  73 100 E3        30.04S FOG
HOWELL         CLOUDY    70  67  90 CALM      30.05R

CITY           SKY/WX    TMP DP  RH WIND       PRES   REMARKS
JACKSON        CLOUDY    74  68  81 E8        30.04R
LAMBERTVILLE   CLOUDY    73  68  83 CALM      30.03S
LANSING        CLOUDY    71  66  84 E3        30.04S
LAPEER         FAIR      61  60  95 CALM      30.05S
MASON          MOCLDY    70  67  90 CALM      30.04S
MONROE         CLOUDY    72  66  83 CALM      30.02R
MT. CLEMENS    CLOUDY    66  62  85 N6        30.03S
PONTIAC        CLOUDY    69  61  75 E3        30.04R
PORT HOPE        N/A     65  63  93 NE7       30.04S
PORT HURON     CLOUDY    64  64 100 N5        30.04S
TRI CITIES     CLEAR     67  63  87 E3        30.06R
TROY           CLOUDY    69  62  77 NE5       30.06R
SAGINAW HB     CLEAR     63  63 100 CALM      30.05S
$$
MIZ043>046-050>051-056>058-064>065-071>073-077>080-230600-
SOUTHWEST LOWER MICHIGAN

CITY           SKY/WX    TMP DP  RH WIND       PRES   REMARKS
BATTLE CREEK   CLEAR     74  70  87 E6        30.03S
BENTON HARBOR  MOCLDY    71  70  96 CALM      29.99F FOG
BIG RAPIDS     CLEAR     66  64  93 CALM      30.06R
COLDWATER      MOCLDY    73  72  96 CALM      30.02S FOG
FREMONT        MOCLDY    69  67  94 E3        30.03S
HOLLAND        CLEAR     73  70  90 E7        30.02S
GRAND RAPIDS   MOCLDY    71  71 100 E6        30.03S
IONIA          CLOUDY    69  64  84 E3        30.04R
KALAMAZOO      CLEAR     71  69  93 CALM      30.02S FOG
LUDINGTON      PTCLDY    71  68  92 SE5       30.03R
MARSHALL       CLEAR     71  70  95 CALM      30.03S
MOUNT PLEASANT CLEAR     64  62  96 CALM      30.05S
MUSKEGON       CLEAR     73  68  84 E6        30.02S
SOUTH HAVEN    PTCLDY    73  73 100 E3        29.99F FOG
$$
MIZ016>042-230600-
NORTHERN LOWER MICHIGAN

CITY           SKY/WX    TMP DP  RH WIND       PRES   REMARKS
ALPENA         FOG       61  60  97 CALM      30.07S VSB 1/4
BEAVER ISLAND  CLOUDY    68  65  91 E6        30.04S
BELLAIRE       PTCLDY    68  65  90 CALM      30.03S
CADILLAC       MOCLDY    65  65  99 SE3       30.06F
CHARLEVOIX     CLOUDY    73  66  81 E6        30.06F
FRANKFORT      CLOUDY    70  67  89 CALM      30.02S
GAYLORD        CLOUDY    67  63  87 SE3       30.08S
GRAYLING       CLOUDY    69  65  86 E6        30.08S
HARBOR SPRINGS PTCLDY    70  65  83 NE6       30.06R
HOUGHTON LAKE  CLOUDY    66  62  87 CALM      30.08R
MANISTEE       PTCLDY    68  66  94 E3        30.03S
OSCODA         FOG       63  63 100 N3        30.06S VSB 1/2
PELLSTON       CLOUDY    67  64  90 E3        30.06S
ROGERS CITY    CLEAR     64  63  97 CALM      30.07S
TRAVERSE CITY  MOCLDY    70  66  87 CALM      30.02S
$$
MIZ007>008-015-230600-
EASTERN UPPER MICHIGAN

CITY           SKY/WX    TMP DP  RH WIND       PRES   REMARKS
KINROSS        CLEAR     64  63  94 E3        30.08R
MACKINAC ISLAN CLEAR     64  63  96 E5        30.07R
NEWBERRY       MOCLDY    64  62  94 CALM      30.06S
S. S. MARIE    CLEAR     65  62  90 E3        30.06S
MUNISING         N/A     71  65  81 CALM      30.04R
$$
MIZ004>006-011>014-085-230600-
CENTRAL UPPER MICHIGAN

CITY           SKY/WX    TMP DP  RH WIND       PRES   REMARKS
MANISTIQUE     CLOUDY    68  64  86 E6        30.03S
ESCANABA       CLOUDY    68  63  83 CALM      30.03S
MENOMINEE      MOCLDY    66  64  94 CALM      30.01S
SAWYER-GWINN   LGT RAIN  68  65  90 CALM      30.06R
$$
MIZ001>003-009>011-084-230600-
WESTERN UPPER MICHIGAN

CITY           SKY/WX    TMP DP  RH WIND       PRES   REMARKS
IRON MOUNTAIN  CLOUDY    68  66  93 SE8       30.03S FOG
HOUGHTON       CLOUDY    64  60  87 E7        30.05S
COPPER HARBOR    N/A     53  51  93 CALM      30.05S
$$

ABBREVIATIONS USED IN REMARKS
   TC - TEMPERATURE IN CELSIUS
  WCI - WIND CHILL INDEX
   HX - HEAT INDEX
  VSB - VISIBILITY



USA.gov is the U.S. government's official web portal to all federal, state and local government web resources and services.